EW2263 Weather Reports


Display with metric or nautical units.
time (UTC)temp
F
wind
direction
speed
MPH
gust
MPH
rain 1hr
in
rain 24hr
in
rain mn
in
humidity
%
barometer
mb
20260509173048 72 151 3.0 0.0 0.00 0.00 0.00 78 1007.2
20260509171543 70 223 3.0 0.0 0.00 0.00 0.00 78 1007.7
20260509170039 69 336 2.0 0.0 0.00 0.00 0.00 81 1007.8
20260509164537 68 178 2.0 0.0 0.00 0.00 0.00 79 1007.8
20260509163043 67 257 2.0 0.0 0.00 0.00 0.00 80 1008.2
20260509161534 67 12 1.0 0.0 0.00 0.00 0.00 80 1008.1
20260509160035 67 178 0.0 0.0 0.00 0.00 0.00 80 1008.4
20260509154540 67 44 1.0 0.0 0.00 0.00 0.00 80 1008.5
20260509153032 66 149 1.0 0.0 0.00 0.00 0.00 81 1008.6
20260509151529 66 281 1.0 0.0 0.00 0.00 0.00 82 1008.6
20260509150029 65 355 1.0 0.0 0.00 0.00 0.00 82 1008.5
20260509144528 66 36 1.0 0.0 0.00 0.00 0.00 81 1008.3
20260509143028 66 151 1.0 0.0 0.00 0.00 0.00 83 1008.1
20260509141536 65 79 1.0 0.0 0.00 0.00 0.00 84 1008.1
20260509140022 64 186 2.0 0.0 0.00 0.00 0.00 85 1008.1
20260509134519 63 112 1.0 0.0 0.00 0.00 0.00 88 1008.0
20260509133016 62 183 1.0 0.0 0.00 0.00 0.00 91 1007.9
20260509131513 61 188 1.0 0.0 0.00 0.00 0.00 94 1008.0
20260509130011 60 140 0.0 0.0 0.00 0.00 0.00 96 1008.3
20260509124507 59 80 0.0 0.0 0.00 0.00 0.00 97 1008.5
20260509123004 58 55 0.0 0.0 0.00 0.00 0.00 97 1008.8
20260509121502 58 70 0.0 0.0 0.00 0.00 0.00 97 1009.1
20260509120001 57 249 0.0 0.0 0.00 0.00 0.00 97 1008.9
20260509114501 56 249 0.0 0.0 0.00 0.00 0.00 97 1008.7
20260509113129 55 138 0.0 0.0 0.00 0.00 0.00 96 1008.5
20260509111605 54 232 0.0 0.0 0.00 0.00 0.00 96 1008.6
20260509110159 54 230 0.0 0.0 0.00 0.00 0.00 96 1008.5
20260509104558 54 226 0.0 0.0 0.00 0.00 0.00 96 1008.4
20260509103058 54 226 0.0 0.0 0.00 0.00 0.00 96 1008.7
20260509101552 53 226 0.0 0.0 0.00 0.00 0.00 96 1008.7
20260509100109 52 226 0.0 0.0 0.00 0.00 0.00 96 1008.6
20260509094554 52 226 0.0 0.0 0.00 0.00 0.00 94 1008.2
20260509093050 51 226 0.0 0.0 0.00 0.00 0.00 93 1008.0
20260509091603 51 226 0.0 0.0 0.00 0.00 0.00 93 1008.0
20260509090051 51 226 0.0 0.0 0.00 0.00 0.00 92 1008.0
20260509084547 51 226 0.0 0.0 0.00 0.00 0.00 92 1008.2
20260509083047 51 226 0.0 0.0 0.00 0.00 0.00 92 1007.9
20260509081556 51 226 0.0 0.0 0.00 0.00 0.00 92 1008.0
20260509080050 51 226 0.0 0.0 0.00 0.00 0.00 92 1008.1
20260509074545 51 226 0.0 0.0 0.00 0.00 0.00 92 1008.3
20260509073046 51 226 0.0 0.0 0.00 0.00 0.00 91 1008.2
20260509071540 52 226 0.0 0.0 0.00 0.00 0.00 91 1008.4
20260509070038 52 226 0.0 0.0 0.00 0.00 0.00 91 1008.6
20260509064534 53 226 0.0 0.0 0.00 0.00 0.00 91 1009.0
20260509063036 53 226 0.0 0.0 0.00 0.00 0.00 90 1009.3
20260509061541 53 226 0.0 0.0 0.00 0.00 0.00 90 1009.4
20260509060031 54 226 0.0 0.0 0.00 0.00 0.00 90 1009.5
20260509054524 54 226 0.0 0.0 0.00 0.00 0.00 90 1009.8
20260509053039 55 226 0.0 0.0 0.00 0.00 0.00 90 1009.8
20260509051520 55 226 0.0 0.0 0.00 0.00 0.00 89 1009.9
20260509050018 55 226 0.0 0.0 0.00 0.00 0.00 88 1010.1
20260509044514 56 226 0.0 0.0 0.00 0.00 0.00 88 1010.3
20260509043011 56 226 0.0 0.0 0.00 0.00 0.00 88 1010.6
20260509041510 57 226 0.0 0.0 0.00 0.00 0.00 87 1010.4
20260509040008 58 226 0.0 0.0 0.00 0.00 0.00 87 1010.8
20260509034506 58 226 0.0 0.0 0.00 0.00 0.00 87 1011.1
20260509033006 58 226 0.0 0.0 0.00 0.00 0.00 87 1011.1
20260509031505 58 226 0.0 0.0 0.00 0.00 0.00 86 1011.0
20260509030006 58 226 0.0 0.0 0.00 0.00 0.00 85 1011.0
20260509024504 58 226 0.0 0.0 0.00 0.00 0.00 84 1010.9
20260509023005 59 226 0.0 0.0 0.00 0.00 0.00 82 1010.9
20260509021504 59 226 0.0 0.0 0.00 0.00 0.00 81 1010.8
20260509020003 60 226 0.0 0.0 0.00 0.00 0.00 81 1011.1
20260509014506 60 226 0.0 0.0 0.00 0.00 0.00 79 1011.0
20260509013003 61 226 0.0 0.0 0.00 0.00 0.00 78 1010.7
20260509011502 62 226 0.0 0.0 0.00 0.00 0.00 77 1010.4
20260509010001 62 226 0.0 0.0 0.00 0.00 0.00 76 1010.5
20260509004500 63 226 0.0 0.0 0.00 0.00 0.00 74 1010.4
20260509003108 63 240 0.0 0.0 0.00 0.00 0.00 73 1010.4
20260509001600 64 196 0.0 0.0 0.00 0.00 0.00 70 1010.4
20260509000106 65 202 1.0 0.0 0.00 0.00 0.00 69 1010.1
20260508234559 66 149 0.0 0.0 0.00 0.00 0.00 67 1010.0
20260508233107 67 231 1.0 0.0 0.00 0.00 0.00 66 1010.1
20260508231635 68 134 1.0 0.0 0.00 0.00 0.00 62 1010.2
20260508230018 68 108 1.0 0.0 0.00 0.00 0.00 64 1010.0
20260508224524 68 83 1.0 0.0 0.00 0.00 0.00 63 1010.0
20260508223033 69 13 1.0 0.0 0.00 0.00 0.00 62 1010.1
20260508221516 69 211 2.0 0.0 0.00 0.00 0.00 59 1010.1
20260508220019 70 146 1.0 0.0 0.00 0.00 0.00 58 1009.9
20260508214515 70 170 1.0 0.0 0.00 0.00 0.00 57 1009.8
20260508213015 71 349 1.0 0.0 0.00 0.00 0.00 57 1009.9
20260508211515 71 143 1.0 0.0 0.00 0.00 0.00 56 1010.1
20260508210014 71 230 2.0 0.0 0.00 0.00 0.00 57 1009.9
20260508204515 71 136 2.0 0.0 0.00 0.00 0.00 56 1010.0
20260508203015 71 293 1.0 0.0 0.00 0.00 0.00 54 1009.9
20260508201516 72 347 1.0 0.0 0.00 0.00 0.00 56 1010.2
20260508200013 72 156 2.0 0.0 0.00 0.00 0.00 53 1010.4
20260508194512 73 186 2.0 0.0 0.00 0.00 0.00 50 1010.7
20260508193012 74 255 2.0 0.0 0.00 0.00 0.00 52 1010.9
20260508191528 74 121 2.0 0.0 0.00 0.00 0.00 49 1011.1
20260508190008 73 273 2.0 0.0 0.00 0.00 0.00 54 1011.2
20260508184507 72 212 2.0 0.0 0.00 0.00 0.00 53 1011.5
20260508183007 71 92 1.0 0.0 0.00 0.00 0.00 57 1011.8
20260508181506 73 160 2.0 0.0 0.00 0.00 0.00 51 1011.9
20260508180003 72 103 2.0 0.0 0.00 0.00 0.00 56 1012.2
20260508174501 71 182 2.0 0.0 0.00 0.00 0.00 52 1012.3